Hourly Weather Otoki

Today, 30 July, Friday

Time Temperature Precipitation Wind Pressure Humidity
00:00 +14°C° 0 mm 3 mps 753 mmHg 71%
01:00 +14°C° 0 mm 3 mps 753 mmHg 74%
02:00 +13°C° 0 mm 3 mps 753 mmHg 76%
03:00 +13°C° 0 mm 3 mps 753 mmHg 78%
04:00 +13°C° 0 mm 3 mps 753 mmHg 80%
05:00 +14°C° 0 mm 4 mps 753 mmHg 75%
06:00 +15°C° 0 mm 5 mps 753 mmHg 71%
07:00 +17°C° 0 mm 5 mps 753 mmHg 66%
08:00 +19°C° 0 mm 6 mps 753 mmHg 60%
09:00 +21°C° 0 mm 6 mps 752 mmHg 54%
10:00 +22°C° 0 mm 7 mps 752 mmHg 47%
11:00 +23°C° 0 mm 7 mps 752 mmHg 45%
12:00 +24°C° 0 mm 7 mps 752 mmHg 42%
13:00 +24°C° 0 mm 7 mps 752 mmHg 39%
14:00 +24°C° 0 mm 6 mps 751 mmHg 40%
15:00 +24°C° 0 mm 6 mps 751 mmHg 40%
16:00 +26°C° 0 mm 6 mps 751 mmHg 41%
17:00 +25°C° 0 mm 5 mps 751 mmHg 48%
18:00 +22°C° 0 mm 3 mps 751 mmHg 55%
19:00 +21°C° 0 mm 2 mps 751 mmHg 62%
20:00 +21°C° 0 mm 1 mps 751 mmHg 64%
21:00 +20°C° 0 mm 1 mps 751 mmHg 67%
22:00 +17°C° 0 mm 0 mps 751 mmHg 70%
23:00 +19°C° 0 mm 1 mps 751 mmHg 71%

Tomorrow, 31 July, Saturday

Time Temperature Precipitation Wind Pressure Humidity
00:00 +17°C° 0 mm 2 mps 750 mmHg 72%
01:00 +17°C° 0 mm 3 mps 750 mmHg 74%
02:00 +17°C° 0 mm 3 mps 750 mmHg 75%
03:00 +17°C° 0 mm 3 mps 750 mmHg 75%
04:00 +17°C° 0 mm 3 mps 749 mmHg 76%
05:00 +18°C° 0 mm 4 mps 749 mmHg 75%
06:00 +19°C° 0 mm 4 mps 750 mmHg 75%
07:00 +19°C° 0 mm 4 mps 750 mmHg 74%
08:00 +21°C° 0 mm 5 mps 750 mmHg 66%
09:00 +22°C° 0 mm 6 mps 750 mmHg 58%
10:00 +24°C° 0 mm 6 mps 750 mmHg 50%
11:00 +24°C° 0 mm 7 mps 750 mmHg 48%
12:00 +24°C° 0 mm 7 mps 750 mmHg 45%
13:00 +24°C° 0 mm 7 mps 749 mmHg 43%
14:00 +24°C° 0 mm 7 mps 750 mmHg 45%
15:00 +24°C° 0 mm 7 mps 750 mmHg 47%
16:00 +23°C° 0 mm 8 mps 750 mmHg 49%
17:00 +22°C° 0 mm 7 mps 750 mmHg 52%
18:00 +21°C° 0 mm 6 mps 750 mmHg 55%
19:00 +21°C° 0 mm 6 mps 750 mmHg 58%
20:00 +20°C° 0 mm 6 mps 750 mmHg 61%
21:00 +19°C° 0 mm 6 mps 750 mmHg 65%
22:00 +17°C° 0 mm 6 mps 750 mmHg 68%
23:00 +17°C° 0 mm 5 mps 750 mmHg 73%

Day after tomorrow, 1 August, Sunday

Time Temperature Precipitation Wind Pressure Humidity
00:00 +16°C° 0 mm 5 mps 751 mmHg 78%
01:00 +15°C° 0 mm 4 mps 751 mmHg 83%
02:00 +15°C° 0 mm 4 mps 751 mmHg 86%
03:00 +14°C° 0 mm 4 mps 751 mmHg 89%
04:00 +14°C° 0 mm 3 mps 751 mmHg 92%
05:00 +15°C° 0 mm 4 mps 751 mmHg 89%
06:00 +15°C° 0 mm 4 mps 751 mmHg 85%
07:00 +17°C° 0 mm 4 mps 751 mmHg 81%
08:00 +18°C° 0 mm 4 mps 751 mmHg 77%
09:00 +18°C° 0 mm 3 mps 752 mmHg 72%
10:00 +19°C° 0 mm 3 mps 752 mmHg 68%
11:00 +20°C° 0.1 mm 3 mps 752 mmHg 64%
12:00 +21°C° 0.1 mm 4 mps 752 mmHg 61%
13:00 +21°C° 0.1 mm 4 mps 752 mmHg 57%
14:00 +22°C° 0.1 mm 4 mps 752 mmHg 56%
15:00 +22°C° 0.1 mm 4 mps 752 mmHg 55%
16:00 +22°C° 0.1 mm 3 mps 752 mmHg 53%
17:00 +21°C° 0 mm 3 mps 752 mmHg 57%
18:00 +20°C° 0 mm 3 mps 751 mmHg 62%
19:00 +20°C° 0 mm 2 mps 751 mmHg 66%
20:00 +18°C° 0 mm 2 mps 751 mmHg 70%
21:00 +17°C° 0 mm 2 mps 752 mmHg 74%
22:00 +16°C° 0 mm 2 mps 752 mmHg 78%
23:00 +15°C° 0 mm 2 mps 752 mmHg 81%

2 August, Monday

Time Temperature Precipitation Wind Pressure Humidity
00:00 +15°C° 0 mm 2 mps 752 mmHg 83%
01:00 +15°C° 0 mm 2 mps 751 mmHg 86%
02:00 +14°C° 0.1 mm 2 mps 752 mmHg 88%
03:00 +14°C° 0.1 mm 2 mps 752 mmHg 90%
04:00 +14°C° 0.1 mm 2 mps 752 mmHg 93%
05:00 +14°C° 0.1 mm 2 mps 752 mmHg 90%
06:00 +14°C° 0.1 mm 3 mps 752 mmHg 87%
07:00 +14°C° 0.1 mm 3 mps 753 mmHg 84%
08:00 +17°C° 0 mm 4 mps 753 mmHg 73%
09:00 +17°C° 0 mm 5 mps 753 mmHg 63%
10:00 +20°C° 0 mm 5 mps 753 mmHg 52%
11:00 +20°C° 0 mm 5 mps 753 mmHg 52%
12:00 +20°C° 0 mm 5 mps 754 mmHg 51%
13:00 +20°C° 0 mm 6 mps 754 mmHg 50%
14:00 +20°C° 0 mm 5 mps 754 mmHg 50%
15:00 +20°C° 0 mm 5 mps 754 mmHg 50%
16:00 +21°C° 0 mm 5 mps 754 mmHg 50%
17:00 +20°C° 0 mm 5 mps 754 mmHg 53%
18:00 +19°C° 0 mm 4 mps 754 mmHg 56%
19:00 +18°C° 0 mm 3 mps 754 mmHg 59%
20:00 +17°C° 0 mm 3 mps 755 mmHg 64%
21:00 +16°C° 0 mm 3 mps 755 mmHg 68%
22:00 +14°C° 0 mm 3 mps 755 mmHg 73%
23:00 +13°C° 0 mm 3 mps 755 mmHg 77%

3 August, Tuesday

Time Temperature Precipitation Wind Pressure Humidity
00:00 +14°C° 0 mm 2 mps 756 mmHg 81%
01:00 +13°C° 0 mm 2 mps 756 mmHg 85%
02:00 +12°C° 0 mm 2 mps 756 mmHg 87%
03:00 +12°C° 0 mm 2 mps 756 mmHg 89%
04:00 +12°C° 0 mm 2 mps 756 mmHg 91%
05:00 +13°C° 0 mm 2 mps 756 mmHg 84%
06:00 +15°C° 0 mm 2 mps 756 mmHg 77%
07:00 +16°C° 0 mm 2 mps 756 mmHg 71%
08:00 +18°C° 0 mm 2 mps 756 mmHg 64%
09:00 +19°C° 0 mm 2 mps 756 mmHg 58%
10:00 +21°C° 0 mm 2 mps 756 mmHg 51%
11:00 +21°C° 0 mm 2 mps 756 mmHg 50%
12:00 +23°C° 0 mm 2 mps 756 mmHg 48%
13:00 +24°C° 0 mm 2 mps 756 mmHg 47%
14:00 +24°C° 0 mm 2 mps 755 mmHg 47%
15:00 +23°C° 0 mm 2 mps 755 mmHg 47%
16:00 +23°C° 0 mm 1 mps 755 mmHg 48%
17:00 +22°C° 0.1 mm 1 mps 755 mmHg 53%
18:00 +21°C° 0.1 mm 1 mps 755 mmHg 58%
19:00 +20°C° 0.1 mm 1 mps 755 mmHg 62%
20:00 +18°C° 0.1 mm 2 mps 755 mmHg 65%
21:00 +18°C° 0.1 mm 2 mps 755 mmHg 67%
22:00 +17°C° 0.1 mm 2 mps 756 mmHg 70%
23:00 +17°C° 0 mm 2 mps 756 mmHg 72%

4 August, Wednesday

Time Temperature Precipitation Wind Pressure Humidity
00:00 +16°C° 0 mm 2 mps 756 mmHg 74%
01:00 +16°C° 0 mm 2 mps 756 mmHg 75%
02:00 +16°C° 0 mm 2 mps 756 mmHg 76%
03:00 +15°C° 0 mm 2 mps 756 mmHg 77%
04:00 +15°C° 0 mm 2 mps 756 mmHg 78%
05:00 +16°C° 0 mm 1 mps 756 mmHg 76%
06:00 +18°C° 0 mm 1 mps 756 mmHg 73%
07:00 +18°C° 0 mm 1 mps 756 mmHg 71%
08:00 +20°C° 0 mm 1 mps 756 mmHg 64%
09:00 +21°C° 0 mm 1 mps 756 mmHg 58%
10:00 +22°C° 0 mm 1 mps 756 mmHg 51%
11:00 +23°C° 0 mm 1 mps 756 mmHg 49%
12:00 +23°C° 0 mm 1 mps 756 mmHg 46%
13:00 +24°C° 0 mm 1 mps 756 mmHg 44%
14:00 +24°C° 0 mm 1 mps 756 mmHg 45%
15:00 +24°C° 0 mm 1 mps 755 mmHg 47%
16:00 +24°C° 0 mm 2 mps 755 mmHg 48%
17:00 +21°C° 0.1 mm 2 mps 755 mmHg 54%
18:00 +20°C° 0.1 mm 2 mps 755 mmHg 61%
19:00 +19°C° 0.1 mm 2 mps 755 mmHg 68%
20:00 +19°C° 0.1 mm 2 mps 755 mmHg 69%
21:00 +18°C° 0.1 mm 2 mps 755 mmHg 71%
22:00 +17°C° 0.1 mm 2 mps 756 mmHg 73%
23:00 +17°C° 0 mm 2 mps 755 mmHg 77%
Show more